Location: Goettingen
(51.5300°N, 9.9433°E)
Time: 05:09:51
(UTC+01:00)

ISS - Pass Details

Date: 20 February 2020
Orbit: 415 x 423 km, 51.6° (Epoch: 27 February)

Event Time Altitude Azimuth Distance (km) Brightness Sun altitude
Rises 06:41:09 0° 190° (S) 2,356 0.0 -7.6°
Reaches altitude 10° 06:44:44 10° 150° (SSE) 1,501 -0.3 -7.0°
Maximum altitude 06:45:30 11° 136° (SE) 1,466 -0.1 -6.9°
Drops below altitude 10° 06:46:17 10° 123° (ESE) 1,504 0.3 -6.8°
Sets 06:49:53 0° 83° (E) 2,377 1.8 -6.2°
